[[{"header":{"parameterUnit":"m.s-1","parameterCategory":1,"la1":30.2991,"la2":30.254,"lo1":-89.0895,"lo2":-89.0444,"dy":0.0017,"dx":0.0017,"nx":28,"ny":28,"refTime":"2024-12-22T03:00:00:Z","depth":0,"parameterNumber":2,"parameterNumberName":"U-component_of_WINDS"},"data":[0,0,0,0,0,0,0,0,0,0,0,0,0,0,0,0,0,0,0,0,0,0,0,0,0,0,0,0,0,0,0,0,0,0,0,0,0,0,0,0,0,0,0,0,0,0,0,0,0,0,0,0,0,0,0,0,0,0,-0.8653,-0.8654,0,-0.8759,-0.876,-0.8762,-0.8742,-0.874,-0.8738,-0.8737,-0.8847,-0.8852,-0.8857,0,0,0,0,0,0,0,0,0,0,0,0,0,-0.8434,-0.8438,-0.8653,-0.8654,-0.8655,-0.8759,-0.876,-0.8762,-0.8742,-0.874,-0.8738,-0.8736,-0.8846,-0.8852,-0.8857,0,0,0,0,0,0,0,0,0,0,0,0,0,-0.8534,-0.844,-0.8652,-0.8658,-0.866,-0.8759,-0.8761,-0.8762,-0.8743,-0.874,-0.8737,-0.8735,-0.8844,-0.8851,-0.8858,-0.8959,0,0,-0.888,-0.8883,0,0,0,0,0,0,0,0,-0.8528,-0.8542,-0.8656,-0.8658,-0.866,-0.8734,-0.8724,-0.8828,-0.8744,-0.8711,-0.8736,-0.8733,-0.8812,-0.8822,-0.8848,-0.8964,-0.8969,-0.888,-0.8885,-0.8888,-0.889,0,0,0,0,0,0,0,-0.8521,-0.8537,-0.8695,-0.8658,-0.866,-0.8656,-0.8667,-0.8744,-0.8777,-0.8714,-0.8713,-0.8726,-0.8813,-0.8841,-0.8851,-0.897,-0.888,-0.8886,-0.8891,-0.8893,-0.9175,-0.9178,0,0,0,0,0,0,-0.8512,-0.8531,-0.8691,-0.8698,-0.8585,-0.8662,-0.8674,-0.8713,-0.8776,-0.8782,-0.8728,-0.8724,-0.8831,-0.8842,-0.8854,-0.8978,-0.8888,-0.8894,-0.8898,-0.9172,-0.9175,-0.9179,0,0,0,0,0,0,-0.8508,-0.8527,-0.8687,-0.8615,-0.8635,-0.8669,-0.8713,-0.8717,-0.8746,-0.8786,-0.8792,-0.8751,-0.8829,-0.8844,-0.8933,-0.8981,-0.8897,-0.8904,-0.9168,-0.9173,-0.9177,-0.9224,0,0,0,0,0,0,-0.8501,-0.8525,-0.8564,-0.8615,-0.8639,-0.8764,-0.8716,-0.8721,-0.8758,-0.8754,-0.8809,-0.8816,-0.8828,-0.8923,-0.894,-0.8989,-0.8909,-0.9164,-0.917,-0.9176,-0.9219,-0.923,-0.924,0,0,0,0,0,-0.8494,-0.8573,-0.8566,-0.8585,-0.8687,-0.8767,-0.878,-0.8792,-0.8761,-0.8801,-0.8827,-0.8814,-0.8972,-0.8932,-0.8951,-0.9004,-0.9161,-0.9168,-0.9175,-0.9214,-0.9228,-0.924,0,0,0,0,0,0,-0.8527,-0.858,-0.8572,-0.8671,-0.8714,-0.8763,-0.8813,-0.8806,-0.8859,-0.8854,-0.8866,-0.8879,-0.8969,-0.8995,-0.8949,-0.9105,-0.9062,-0.9074,-0.9085,-0.9099,-0.9109,-0.9102,-0.8915,0,0,0,0,0,-0.8545,-0.8605,-0.8648,-0.8731,-0.8753,-0.8779,-0.8814,-0.8819,-0.8865,-0.8884,-0.8916,-0.8962,-0.9022,-0.9061,-0.9119,-0.9221,-0.9234,-0.9267,-0.9277,-0.9286,-0.9296,-0.9354,-0.9369,-0.9203,-0.9203,-0.9203,0,0,-0.8585,-0.8621,-0.8658,-0.8738,-0.8772,-0.8835,-0.8795,-0.8862,-0.8909,-0.8894,-0.898,-0.9005,-0.9057,-0.9153,-0.9197,-0.9177,-0.9345,-0.9295,-0.9302,-0.9308,-0.9363,-0.9378,-0.9392,-0.9208,-0.9207,-0.9206,0,0,-0.8689,-0.8721,-0.8794,-0.8829,-0.8881,-0.8898,-0.8915,-0.8966,-0.8982,-0.9068,-0.9058,-0.9113,-0.9216,-0.9254,-0.9286,-0.9403,-0.9394,-0.9421,-0.9478,-0.9534,-0.9547,-0.9558,-0.9602,-0.9617,-0.9431,-0.9431,-0.9431,0,-0.8732,-0.8824,-0.8833,-0.8901,-0.8937,-0.8925,-0.9,-0.9033,-0.9102,-0.9127,-0.9103,-0.9232,-0.9266,-0.9372,-0.94,-0.9426,-0.9447,-0.9416,-0.9544,-0.9556,-0.9567,-0.9608,-0.9624,-0.9434,-0.9434,-0.9434,-0.9433,0,-0.8875,-0.8939,-0.8992,-0.9058,-0.9099,-0.9171,-0.919,-0.9231,-0.9232,-0.9252,-0.934,-0.9379,-0.9445,-0.947,-0.9471,-0.9576,-0.9562,-0.9541,-0.9499,-0.9586,-0.9625,-0.9641,-0.9439,-0.9438,-0.9437,-0.9436,0,0,-0.9005,-0.9074,-0.9094,-0.9124,-0.9179,-0.923,-0.93,-0.9363,-0.9399,-0.9446,-0.9506,-0.9593,-0.9574,-0.9611,-0.9616,-0.9664,-0.9756,-0.9638,-0.9639,-0.966,-0.9875,-0.9892,-0.991,-0.9749,-0.9752,-0.9755,-0.9871,0,-0.9116,-0.924,-0.925,-0.9362,-0.9422,-0.9411,-0.9472,-0.9514,-0.9533,-0.9587,-0.9609,-0.9671,-0.964,-0.9662,-0.9709,-0.9735,-0.98,-0.9726,-0.9807,-0.981,-0.9797,-0.9931,-0.9949,-1.0058,-0.9886,-0.9889,-0.9891,0,-0.9263,-0.9314,-0.9432,-0.948,-0.9505,-0.956,-0.9619,-0.9671,-0.9717,-0.9728,-0.9769,-0.9767,-0.984,-0.9793,-0.9895,-0.9844,-0.9877,-0.9895,-0.9899,-0.9909,-0.9857,-0.9946,-1.0092,-1.0109,-0.9915,-0.9913,-0.9911,0,-0.9349,-0.9447,-0.953,-0.9556,-0.9613,-0.9652,-0.9678,-0.9721,-0.9759,-0.981,-0.9835,-0.9894,-0.9927,-0.9973,-0.9987,-0.9952,-1.0088,-1.0043,-1.0101,-1.01,-1.0132,-1.0131,-1.0288,-1.0149,-1.0149,-1.0149,-1.0149,0,-0.9473,-0.9546,-0.957,-0.9621,-0.9703,-0.9713,-0.9793,-0.9817,-0.9855,-0.9912,-0.9905,-0.9958,-0.9973,-1.0029,-1.004,-1.0123,-1.0138,-1.0149,-1.0152,-1.0151,-1.015,-1.0175,-1.0169,-1.0153,-1.0152,-1.0151,-1.0151,0,-0.9584,-0.9602,-0.9693,-0.9739,-0.9752,-0.9811,-0.985,-0.99,-0.9918,-0.9989,-1.0007,-1.0035,-1.01,-1.0119,-1.0197,-1.0205,-1.0303,-1.0297,-1.0287,-1.0288,-1.0346,-1.0341,-1.0526,-1.0552,-1.0395,-1.0396,-1.0397,0,-0.9663,-0.9719,-0.9771,-0.9808,-0.9835,-0.9895,-0.9933,-0.9944,-0.9984,-1.0041,-1.0084,-1.0148,-1.0201,-1.0306,-1.0334,-1.0394,-1.0391,-1.0452,-1.04,-1.0398,-1.0394,-1.0392,-1.0398,-1.0462,-1.0464,-1.0465,-1.0467,0,-0.9803,-0.9809,-0.9864,-0.9922,-0.9968,-1.0014,-1.0059,-1.0089,-1.0106,-1.0152,-1.0218,-1.0259,-1.0338,-1.0403,-1.0463,-1.049,-1.0482,-1.0482,-1.0499,-1.05,-1.0493,-1.05,-1.0317,-1.0478,-1.0477,-1.0476,-1.0476,-1.0475,-0.9902,-0.9952,-0.9996,-1.0057,-1.0092,-1.0133,-1.0183,-1.0206,-1.0262,-1.0327,-1.033,-1.0403,-1.0447,-1.0527,-1.0557,-1.0614,-1.0597,-1.0621,-1.0627,-1.0634,-1.0639,-1.0482,-1.0625,-1.0625,-1.0625,-1.0624,-1.0624,0,-1.0043,-1.0071,-1.0127,-1.0189,-1.0238,-1.0224,-1.0272,-1.0314,-1.0378,-1.042,-1.0471,-1.0547,-1.0609,-1.0641,-1.0703,-1.0743,-1.0741,-1.0759,-1.0757,-1.0764,-1.0651,-1.0631,-1.076,-1.076,-1.076,-1.076,-1.076,-1.076,-1.0123,-1.0206,-1.0217,-1.0318,-1.0345,-1.0416,-1.0445,-1.0483,-1.0517,-1.0602,-1.0654,-1.0674,-1.0712,-1.0776,-1.0833,-1.084,-1.0864,-1.0885,-1.0891,-1.0786,-1.0772,-1.0759,-1.074,-1.089,-1.089,-1.1,-1.1001,-1.1001]},{"header":{"parameterUnit":"m.s-1","parameterCategory":1,"la1":30.2991,"la2":30.254,"lo1":-89.0895,"lo2":-89.0444,"dy":0.0017,"dx":0.0017,"nx":28,"ny":28,"refTime":"2024-12-22T03:00:00:Z","depth":0,"parameterNumber":3,"parameterNumberName":"V-component_of_WINDS"},"data":[0,0,0,0,0,0,0,0,0,0,0,0,0,0,0,0,0,0,0,0,0,0,0,0,0,0,0,0,0,0,0,0,0,0,0,0,0,0,0,0,0,0,0,0,0,0,0,0,0,0,0,0,0,0,0,0,0,0,-5.2141,-5.2143,0,-5.2286,-5.2288,-5.2289,-5.2215,-5.2211,-5.2208,-5.2204,-5.2349,-5.2356,-5.2364,0,0,0,0,0,0,0,0,0,0,0,0,0,-5.1797,-5.1804,-5.2141,-5.2143,-5.2145,-5.2286,-5.2288,-5.229,-5.2216,-5.2211,-5.2207,-5.2202,-5.2347,-5.2356,-5.2364,0,0,0,0,0,0,0,0,0,0,0,0,0,-5.1945,-5.1806,-5.2141,-5.2125,-5.2125,-5.2285,-5.2288,-5.229,-5.2217,-5.2211,-5.2205,-5.22,-5.2344,-5.2355,-5.2366,-5.2549,0,0,-5.24,-5.2405,0,0,0,0,0,0,0,0,-5.1936,-5.1957,-5.2125,-5.2126,-5.2127,-5.2227,-5.222,-5.2377,-5.2218,-5.2182,-5.2204,-5.2197,-5.2313,-5.2326,-5.2366,-5.2556,-5.2562,-5.2401,-5.2407,-5.2412,-5.2415,0,0,0,0,0,0,0,-5.1926,-5.1951,-5.2198,-5.2128,-5.2129,-5.2109,-5.2124,-5.2249,-5.2278,-5.2185,-5.218,-5.2198,-5.2312,-5.2355,-5.2369,-5.2564,-5.24,-5.241,-5.2417,-5.2421,-5.2912,-5.2918,0,0,0,0,0,0,-5.1917,-5.1943,-5.2193,-5.2202,-5.2016,-5.212,-5.2137,-5.22,-5.2276,-5.2282,-5.2203,-5.2194,-5.2339,-5.2356,-5.2374,-5.2594,-5.2412,-5.2423,-5.2429,-5.2905,-5.2913,-5.292,0,0,0,0,0,0,-5.191,-5.194,-5.2188,-5.2071,-5.2101,-5.2132,-5.2204,-5.2206,-5.2249,-5.229,-5.2294,-5.2242,-5.2335,-5.2358,-5.2506,-5.2598,-5.2428,-5.2438,-5.2898,-5.2908,-5.2916,-5.3035,0,0,0,0,0,0,-5.1901,-5.1938,-5.2009,-5.2074,-5.2108,-5.2319,-5.221,-5.2213,-5.2269,-5.2259,-5.2328,-5.2334,-5.2332,-5.249,-5.2517,-5.261,-5.2446,-5.289,-5.2902,-5.2913,-5.3023,-5.3048,-5.3069,0,0,0,0,0,-5.1889,-5.2036,-5.2013,-5.2044,-5.2197,-5.2325,-5.2344,-5.2341,-5.2277,-5.2348,-5.2374,-5.2331,-5.2583,-5.2506,-5.2536,-5.2633,-5.2884,-5.2899,-5.2913,-5.3013,-5.3043,-5.3068,0,0,0,0,0,0,-5.198,-5.2044,-5.2019,-5.2192,-5.2254,-5.2312,-5.2402,-5.2373,-5.2453,-5.244,-5.2431,-5.2447,-5.2602,-5.2632,-5.2545,-5.2815,-5.2723,-5.2744,-5.279,-5.2818,-5.284,-5.283,-5.2456,0,0,0,0,0,-5.2021,-5.212,-5.217,-5.2318,-5.235,-5.2371,-5.2426,-5.2418,-5.2481,-5.2507,-5.2543,-5.2605,-5.2698,-5.2759,-5.2847,-5.3027,-5.3041,-5.3109,-5.3131,-5.3149,-5.3168,-5.3266,-5.3296,-5.2967,-5.2967,-5.2966,0,0,-5.2105,-5.2152,-5.2215,-5.2337,-5.2384,-5.2486,-5.2393,-5.2505,-5.2581,-5.2523,-5.2666,-5.2695,-5.2763,-5.2929,-5.3003,-5.2959,-5.3262,-5.3168,-5.3182,-5.3191,-5.3283,-5.3315,-5.3342,-5.2976,-5.2975,-5.2973,0,0,-5.2312,-5.2357,-5.2486,-5.2535,-5.2607,-5.262,-5.2651,-5.2714,-5.2732,-5.2875,-5.2834,-5.2923,-5.3083,-5.3134,-5.3181,-5.3406,-5.337,-5.3435,-5.3553,-5.3648,-5.3674,-5.3697,-5.3779,-5.3808,-5.3453,-5.3453,-5.3453,0,-5.2408,-5.2561,-5.2555,-5.2671,-5.2726,-5.2679,-5.2809,-5.2856,-5.2953,-5.2992,-5.294,-5.3141,-5.3183,-5.336,-5.3415,-5.3454,-5.3489,-5.3427,-5.3671,-5.3694,-5.3716,-5.3793,-5.3823,-5.346,-5.346,-5.3459,-5.3458,0,-5.2676,-5.2783,-5.2877,-5.2974,-5.3039,-5.3161,-5.3173,-5.3239,-5.3225,-5.3243,-5.339,-5.3439,-5.3536,-5.3577,-5.3564,-5.3752,-5.3723,-5.3672,-5.358,-5.3755,-5.3827,-5.3857,-5.3471,-5.3468,-5.3466,-5.3464,0,0,-5.2945,-5.3037,-5.3072,-5.3115,-5.3191,-5.3273,-5.3393,-5.3489,-5.3546,-5.3614,-5.3714,-5.3851,-5.3805,-5.3858,-5.385,-5.3933,-5.411,-5.3872,-5.3873,-5.3915,-5.432,-5.4359,-5.4394,-5.4086,-5.4091,-5.4096,-5.4315,0,-5.3158,-5.3369,-5.3366,-5.3561,-5.366,-5.3617,-5.3721,-5.3779,-5.3798,-5.3884,-5.3905,-5.4003,-5.3933,-5.3965,-5.4046,-5.4071,-5.4191,-5.4055,-5.4179,-5.4183,-5.4165,-5.4431,-5.4473,-5.4677,-5.4343,-5.4348,-5.4351,0,-5.3434,-5.3513,-5.3718,-5.378,-5.3822,-5.3916,-5.4004,-5.4086,-5.415,-5.4159,-5.4218,-5.4198,-5.4318,-5.4222,-5.4388,-5.4296,-5.4346,-5.4366,-5.4374,-5.4386,-5.4279,-5.4452,-5.4742,-5.4774,-5.4396,-5.4392,-5.4389,0,-5.3612,-5.3768,-5.3912,-5.395,-5.4026,-5.4093,-5.4127,-5.4186,-5.4244,-5.432,-5.4358,-5.4446,-5.4495,-5.4564,-5.4568,-5.4497,-5.4735,-5.4639,-5.4746,-5.4746,-5.4799,-5.4796,-5.5102,-5.4829,-5.4829,-5.4828,-5.4827,0,-5.385,-5.3977,-5.3993,-5.4081,-5.4222,-5.4218,-5.4357,-5.4385,-5.4438,-5.453,-5.4497,-5.4584,-5.4583,-5.4671,-5.4674,-5.4811,-5.4833,-5.4843,-5.4843,-5.4847,-5.4846,-5.4881,-5.4867,-5.4836,-5.4834,-5.4833,-5.4831,0,-5.4073,-5.4088,-5.4241,-5.4301,-5.4319,-5.442,-5.447,-5.4554,-5.457,-5.4688,-5.4715,-5.474,-5.4843,-5.4853,-5.4971,-5.4973,-5.5139,-5.5123,-5.5119,-5.5116,-5.5222,-5.5213,-5.5563,-5.5609,-5.5305,-5.5307,-5.531,0,-5.4225,-5.4322,-5.4392,-5.4452,-5.4491,-5.4588,-5.4647,-5.4646,-5.4709,-5.4789,-5.4863,-5.4962,-5.5042,-5.5207,-5.5235,-5.5326,-5.5312,-5.5428,-5.5325,-5.5327,-5.5315,-5.531,-5.532,-5.5449,-5.5452,-5.5455,-5.5457,0,-5.4493,-5.4496,-5.4583,-5.4674,-5.4746,-5.4817,-5.4883,-5.4934,-5.494,-5.5013,-5.5118,-5.5179,-5.5301,-5.54,-5.5489,-5.5522,-5.5492,-5.5489,-5.5519,-5.5525,-5.5519,-5.5525,-5.5174,-5.5481,-5.5479,-5.5477,-5.5476,-5.5475,-5.4686,-5.477,-5.4833,-5.4932,-5.4982,-5.5044,-5.5126,-5.5153,-5.5241,-5.5341,-5.5334,-5.545,-5.5511,-5.5627,-5.5668,-5.5758,-5.5719,-5.5761,-5.5772,-5.5783,-5.5795,-5.5504,-5.5774,-5.5773,-5.5772,-5.5772,-5.5771,0,-5.4953,-5.4991,-5.5082,-5.5177,-5.5254,-5.5219,-5.529,-5.5357,-5.546,-5.552,-5.5599,-5.572,-5.5815,-5.5852,-5.5945,-5.601,-5.5998,-5.6035,-5.603,-5.6039,-5.5824,-5.579,-5.6043,-5.6043,-5.6043,-5.6043,-5.6042,-5.6042,-5.5102,-5.5243,-5.5254,-5.5419,-5.5456,-5.5571,-5.5615,-5.5672,-5.572,-5.5857,-5.5937,-5.596,-5.601,-5.6107,-5.6193,-5.6201,-5.6237,-5.628,-5.6282,-5.6081,-5.6054,-5.6028,-5.5996,-5.6288,-5.6288,-5.649,-5.6492,-5.6493]}]]